Wind_Speed
21 21 21 20 20 19 20 19 18 18 18 18 17 17 18 18 18 17 17 18 18 18 18 19 19 20 21 21 22 22 22 19 13 6 0 2 2 1 2 4 5 7 7 6 4 4 7 10 10 10 9 8 8 9 11 11 9 8 9 12 13 14 15 15 15 15 13 15 15 11 11 14 13 12 9 7 12 15 12 10 8 10 6 9 12 15 17 17
20 21 21 21 20 20 20 19 18 18 18 18 17 17 18 18 18 18 18 18 18 18 18 18 18 20 20 21 21 21 20 17 12 3 4 2 2 0 3 3 4 6 6 5 3 2 5 7 9 10 9 8 8 10 11 10 11 10 10 12 13 14 15 16 16 16 15 16 14 11 11 13 14 12 9 10 14 16 16 13 11 11 9 11 14 17 18 17
20 21 21 21 20 19 20 19 18 18 18 18 17 18 18 18 18 18 18 18 18 18 18 18 18 19 20 20 21 19 18 15 9 3 4 2 3 1 2 2 4 5 5 4 4 3 3 3 5 9 10 9 8 11 12 11 11 12 12 12 14 16 17 18 18 17 17 15 15 12 11 14 15 12 9 12 15 17 18 14 12 12 11 11 14 17 18 18
22 22 21 21 20 20 20 20 19 19 19 19 18 19 19 19 19 19 19 18 18 18 18 18 18 18 20 20 19 17 14 11 4 6 4 3 3 1 1 2 3 3 3 3 3 2 2 3 5 9 10 9 9 11 12 12 10 11 14 14 15 17 18 18 17 17 16 14 16 13 11 14 15 13 10 12 15 15 16 16 16 13 14 13 13 16 17 17
23 22 22 20 21 20 20 20 20 20 20 19 19 19 20 20 19 20 20 18 17 17 17 17 17 18 20 19 17 14 9 6 3 7 3 3 3 2 3 3 4 4 3 3 2 2 3 4 5 8 9 9 10 10 12 14 11 11 16 18 18 16 18 18 15 16 16 14 16 16 13 12 12 13 13 15 15 12 13 16 22 17 16 15 14 15 15 15
22 23 23 21 21 21 21 21 21 21 20 20 19 19 19 19 19 19 18 17 16 16 16 16 16 17 19 18 15 10 7 2 5 5 2 2 2 2 3 4 5 4 3 4 2 3 3 4 6 8 8 10 12 11 13 14 11 11 13 17 19 15 14 14 14 16 16 15 16 16 14 11 14 15 14 18 16 14 13 12 17 13 16 17 15 15 15 15
22 22 23 22 22 21 21 21 21 22 20 19 20 19 19 19 19 18 18 17 16 15 15 15 14 15 18 18 12 7 7 0 6 4 2 2 2 2 1 3 5 4 3 3 3 3 2 3 6 5 7 9 11 12 11 10 10 11 12 14 14 10 11 9 8 13 15 17 17 15 15 15 19 16 14 18 17 17 13 6 8 3 13 17 15 14 15 15
22 22 22 22 22 22 22 22 21 22 21 20 20 20 20 19 19 19 18 18 16 15 14 13 13 13 16 15 8 6 4 3 5 2 2 2 3 3 2 2 4 4 3 3 3 2 2 3 3 3 8 6 6 9 7 8 11 13 14 9 6 7 13 10 6 10 12 14 15 15 18 18 19 15 14 18 17 18 14 8 7 3 8 14 14 14 14 13
23 23 23 23 23 23 22 22 22 22 22 21 21 20 20 20 20 20 20 19 18 16 13 12 11 12 13 11 8 5 1 4 1 1 1 2 4 4 3 2 3 4 3 3 4 3 3 2 1 1 6 2 3 6 5 8 9 11 13 6 3 7 11 10 8 11 11 11 12 14 18 18 18 16 16 19 17 17 15 14 12 9 11 13 13 14 14 13
24 23 23 23 23 23 23 23 22 22 22 21 20 20 20 21 21 21 20 19 17 15 12 10 9 10 9 7 7 3 5 4 1 2 5 4 4 4 2 2 3 4 4 3 3 3 2 0 0 1 4 1 3 4 3 7 2 2 7 4 5 6 6 8 10 12 11 11 13 16 19 19 18 16 14 17 18 17 16 16 15 13 13 13 14 14 14 13
24 24 24 24 24 24 23 23 22 22 22 20 20 20 21 21 20 18 17 15 13 11 9 7 7 6 6 6 6 1 7 5 3 5 7 6 5 4 2 2 4 4 5 3 2 3 2 2 1 2 3 1 4 5 3 3 2 0 4 5 8 7 7 9 10 12 9 11 15 15 19 20 19 18 16 17 18 19 19 17 16 15 13 12 10 11 12 11
24 25 25 24 24 24 24 24 23 22 21 20 20 20 21 20 16 14 13 12 9 6 4 5 5 4 5 6 3 3 5 3 5 5 5 5 6 6 4 3 3 4 5 2 2 2 1 1 3 5 1 1 4 4 3 2 3 3 4 7 10 9 11 12 12 13 11 12 13 12 15 19 20 21 21 19 17 19 19 18 17 15 14 12 8 10 9 9
25 25 25 25 24 24 24 23 23 22 20 19 19 20 20 17 12 10 12 13 9 2 3 4 3 2 6 3 2 4 2 3 6 6 5 5 5 6 6 5 4 3 4 3 2 1 1 1 4 5 1 3 2 2 2 3 4 6 6 8 8 8 11 14 14 14 14 11 10 11 12 16 21 25 24 19 18 20 17 17 17 15 13 12 8 8 9 9
26 26 25 25 25 25 24 23 22 21 19 18 19 20 17 13 9 8 12 14 8 2 4 3 2 3 5 1 4 2 1 2 6 7 7 5 2 3 3 4 4 3 2 2 1 0 1 1 4 3 2 5 1 2 4 5 5 6 7 7 8 8 9 14 16 15 15 11 11 14 12 15 22 26 25 19 19 22 18 16 17 15 14 12 10 8 10 10
25 26 25 25 26 26 24 23 22 19 17 16 19 19 14 9 8 6 10 13 6 3 4 2 2 4 4 2 4 1 2 1 5 8 8 5 1 3 4 4 4 3 2 1 1 1 1 3 5 3 3 2 2 4 6 5 5 5 6 7 9 9 7 12 15 16 17 13 13 16 13 15 21 23 22 19 21 23 20 18 17 16 16 14 12 10 9 10
25 26 26 26 26 25 23 22 20 17 15 16 19 17 11 8 7 6 8 10 5 4 2 1 1 4 4 3 4 3 1 3 6 9 7 4 3 4 5 4 5 3 3 2 2 3 3 4 3 2 2 4 6 7 6 5 6 6 6 8 9 10 9 8 11 16 19 15 16 19 15 14 17 19 19 20 22 23 21 20 19 18 17 15 13 11 9 9
26 26 26 26 25 24 22 21 19 15 14 16 19 14 8 8 6 5 7 7 3 3 2 2 1 4 1 3 3 3 3 6 7 9 6 4 3 3 3 3 4 3 5 5 4 4 4 4 2 2 4 5 5 5 6 7 7 7 7 7 6 9 10 8 10 13 18 17 18 20 18 16 12 11 16 17 18 21 22 21 21 19 16 15 13 12 11 9
26 26 26 26 25 24 21 20 16 13 14 18 19 11 7 8 5 5 6 3 2 4 4 2 2 3 2 3 1 3 6 8 8 6 3 3 2 2 2 1 2 3 6 6 5 4 4 4 3 4 4 5 5 6 8 6 6 7 8 8 7 7 9 9 7 9 16 18 19 20 19 20 14 7 9 10 11 17 19 19 19 19 17 16 14 13 13 12
26 26 26 25 24 22 20 18 14 12 14 18 18 9 5 6 3 4 4 3 2 1 1 1 2 2 1 3 5 6 7 8 6 3 1 2 2 1 1 1 1 4 6 4 4 3 3 3 4 5 5 6 6 7 7 3 3 4 6 7 8 8 9 10 6 5 10 14 17 19 16 19 20 14 12 9 10 14 15 16 16 16 17 15 14 14 14 14
27 26 26 25 23 21 18 15 11 11 14 18 17 8 3 4 1 2 3 4 4 4 3 4 4 3 3 4 6 8 6 5 4 1 2 1 2 3 2 2 4 4 3 1 3 2 3 4 5 4 1 2 1 3 5 3 3 4 4 6 8 8 8 11 8 6 4 9 12 17 16 17 21 21 18 13 12 13 12 15 15 15 16 14 15 15 15 15
27 26 26 25 22 20 15 11 10 9 11 15 14 7 5 8 5 4 6 3 3 3 4 4 4 4 3 5 6 7 4 4 3 1 2 1 4 5 1 1 5 4 2 0 1 2 4 5 2 1 3 2 1 1 2 2 4 6 6 7 8 8 7 9 9 5 4 7 9 13 15 16 17 17 17 13 13 13 12 13 14 16 15 13 16 17 17 15
27 26 26 24 21 18 12 9 8 7 8 11 11 9 9 8 6 4 5 3 2 3 3 2 3 1 1 2 3 4 5 1 3 3 2 3 5 3 1 1 4 1 2 3 3 3 5 4 3 4 2 2 2 2 3 5 5 6 7 7 7 8 7 6 8 7 4 5 9 10 10 12 15 16 15 13 15 14 13 13 13 14 15 14 15 15 16 16
27 27 26 23 19 16 9 6 8 7 6 8 9 10 8 7 5 3 4 5 2 1 1 2 2 3 3 2 2 4 5 5 1 4 3 4 4 1 3 3 3 2 3 4 4 4 3 2 6 5 3 3 4 4 5 5 5 7 6 6 7 8 8 6 8 10 7 6 9 9 7 10 14 16 16 16 17 15 14 15 13 11 13 13 12 12 14 16
27 26 25 21 16 13 7 3 6 6 4 5 8 8 6 6 4 4 4 5 1 2 1 2 2 4 4 3 1 5 6 5 3 3 4 4 2 0 4 3 3 5 4 3 3 5 4 4 6 3 4 4 5 5 6 6 5 7 7 7 7 6 8 7 3 4 5 8 10 9 8 10 13 16 16 15 16 17 16 16 15 13 13 12 11 11 11 13
26 25 24 20 14 11 4 1 5 5 2 3 7 6 5 5 3 4 4 4 1 2 3 3 1 2 3 1 2 5 8 4 3 1 1 5 4 3 3 1 4 5 3 4 4 6 3 4 5 5 5 5 5 5 6 6 5 6 9 10 8 5 7 8 5 3 5 8 11 11 10 9 13 18 17 14 15 18 17 18 18 17 17 15 13 12 11 11
26 24 22 18 13 10 3 0 5 5 4 3 6 6 5 5 4 4 4 4 2 3 0 1 1 2 2 2 3 8 9 1 3 2 2 5 4 5 4 2 4 3 1 3 4 4 2 5 6 7 7 7 7 5 6 6 6 5 4 7 9 9 9 10 9 7 7 7 7 10 11 9 9 15 18 17 17 19 19 20 20 18 18 18 15 14 14 13
26 24 21 15 11 9 4 3 6 6 4 4 5 6 7 7 5 2 4 4 2 3 4 2 2 3 3 5 8 9 6 3 2 0 2 1 2 4 5 4 3 2 3 3 4 3 5 6 7 8 8 8 7 6 5 7 7 2 5 3 8 10 11 11 10 8 8 7 3 7 11 10 9 11 13 15 19 20 20 20 20 19 20 20 19 17 16 15
26 23 18 12 7 6 4 4 7 6 5 5 6 7 8 7 4 3 4 2 3 3 3 3 3 1 4 9 8 6 5 6 5 3 6 1 3 4 7 7 7 5 5 5 5 4 7 7 8 8 7 7 5 2 4 8 8 0 4 2 5 8 9 10 9 8 8 9 7 9 12 10 10 10 9 12 16 18 20 21 20 19 20 21 21 20 18 16
26 20 14 9 4 4 4 4 6 5 5 6 8 9 8 5 3 4 4 1 2 2 0 2 3 3 8 9 5 3 4 3 3 2 2 4 3 5 6 5 7 8 6 8 8 3 4 4 5 6 7 6 5 4 4 8 7 1 3 4 3 5 7 7 8 7 8 9 10 13 14 10 10 10 10 11 13 15 17 18 19 19 19 19 19 20 19 16
24 17 10 6 3 3 6 4 3 5 7 8 10 10 7 4 4 4 2 1 3 3 1 3 6 7 11 10 4 4 4 2 3 3 3 3 2 5 5 3 5 7 8 9 10 9 4 2 3 6 7 6 6 7 6 8 7 2 4 6 5 5 6 6 6 6 7 9 12 16 17 14 11 9 10 11 12 14 15 14 15 16 18 19 18 18 19 18
21 11 5 4 3 3 5 3 3 8 9 10 11 9 5 4 3 3 3 2 3 4 4 5 8 9 11 11 7 5 6 4 3 4 4 2 3 5 4 3 4 5 7 8 9 11 9 7 6 7 8 8 7 7 7 9 8 5 5 7 6 6 5 5 6 6 7 10 12 16 19 18 13 9 10 12 13 14 14 13 13 14 14 14 15 16 17 18
15 6 4 4 4 3 5 6 9 12 11 11 10 6 4 2 2 3 3 2 3 4 7 8 10 11 11 11 7 6 7 5 4 5 6 5 4 4 4 5 4 4 5 4 4 6 8 8 8 8 9 9 9 8 8 8 9 8 7 7 6 6 6 6 7 7 9 11 10 11 15 16 13 11 13 14 13 12 11 10 11 11 11 10 12 14 14 15
8 5 5 5 5 4 5 8 11 12 11 11 7 4 4 3 4 3 4 4 2 4 7 9 11 12 11 9 6 6 5 3 6 7 7 7 6 6 7 7 7 7 5 2 3 3 4 5 8 10 9 10 12 9 7 8 9 9 8 8 8 7 7 8 8 8 10 11 9 9 11 11 10 11 14 17 15 12 10 9 9 10 11 10 10 11 12 13
7 8 7 6 7 6 8 9 10 12 12 9 6 4 3 3 4 3 4 5 5 6 9 12 13 12 9 6 6 7 4 3 7 8 8 7 6 6 7 6 6 8 6 4 4 4 5 4 5 8 5 8 13 12 10 8 8 10 10 9 9 8 9 9 8 8 9 10 11 12 9 8 8 5 6 11 14 14 13 13 14 14 13 12 11 11 11 12
7 9 9 8 8 8 10 9 11 14 11 7 5 3 4 4 3 4 4 6 7 8 11 13 11 9 7 4 4 5 3 4 8 9 8 6 6 7 6 4 3 5 5 5 3 3 7 7 5 6 3 5 11 13 12 10 8 9 9 10 10 10 10 9 9 8 6 7 9 10 7 7 8 6 4 6 8 11 13 13 14 15 14 14 13 13 12 11
3 6 7 6 7 9 11 11 13 14 9 6 4 3 5 3 3 4 4 6 8 9 13 11 6 6 7 4 4 5 2 4 10 8 6 7 8 6 4 4 2 4 5 5 3 2 5 5 3 6 6 8 10 10 12 12 7 5 9 11 10 9 9 9 11 9 5 6 8 8 9 9 9 10 11 13 12 11 11 11 12 13 14 14 12 12 12 12
1 2 3 6 9 11 11 11 14 13 7 5 3 4 3 2 3 5 5 7 8 7 8 7 4 5 7 6 6 7 4 5 7 5 4 7 5 2 3 4 2 5 7 6 4 3 4 5 4 8 9 9 9 8 10 13 10 6 7 9 8 8 9 8 8 8 8 10 9 10 14 13 10 9 9 14 18 18 16 14 13 12 12 12 11 11 12 14
2 2 1 7 13 14 11 12 14 10 6 3 1 2 1 2 3 4 6 8 8 6 5 5 3 3 6 7 7 9 8 7 6 6 6 6 2 1 3 4 0 3 6 6 4 2 3 6 4 8 9 7 8 7 9 12 14 12 8 5 6 8 9 8 8 7 9 10 9 13 17 14 12 10 7 8 12 14 18 18 17 16 14 12 11 11 12 13
3 4 1 8 15 15 12 13 11 7 4 2 1 2 1 3 4 5 7 7 7 5 5 4 2 2 5 8 9 9 8 7 9 8 4 2 1 1 3 2 1 0 2 5 5 3 3 5 2 5 5 4 6 8 8 9 12 14 11 8 8 7 7 8 7 7 10 11 10 13 14 12 11 12 13 13 10 8 10 12 14 15 15 14 13 12 12 12
4 3 2 10 17 15 12 11 7 3 1 2 2 2 2 3 5 5 6 6 5 3 4 5 3 3 6 7 9 8 5 7 10 8 3 3 5 3 1 0 1 0 1 5 6 4 4 5 3 3 5 5 6 7 9 9 8 10 11 11 10 8 6 7 8 9 10 10 10 12 12 10 7 9 14 16 14 11 10 9 9 10 12 14 13 12 12 12
4 2 3 12 18 14 10 6 2 3 2 1 1 2 3 4 6 7 5 3 4 3 4 7 6 5 6 6 7 7 4 7 9 7 5 4 4 3 2 1 4 3 3 5 6 5 4 4 6 5 4 6 7 7 10 12 10 9 10 11 11 10 8 9 10 11 10 10 10 11 12 10 7 7 9 11 12 12 14 14 13 13 13 12 10 9 9 9
3 2 4 13 18 14 9 2 2 3 2 2 4 3 4 5 5 7 6 2 4 3 3 6 6 6 6 4 5 6 5 7 8 7 6 5 6 6 2 2 7 6 5 6 6 6 5 4 7 9 8 9 9 8 9 12 14 13 12 12 11 11 10 11 10 9 10 12 12 12 13 11 8 8 8 8 9 10 12 14 15 14 12 10 9 8 8 7
3 2 3 12 17 13 7 0 2 2 2 4 5 3 3 4 5 6 6 4 4 4 3 5 5 5 4 3 3 4 5 6 7 7 6 7 9 9 7 6 7 8 7 6 6 5 5 5 8 8 8 10 11 11 10 11 13 13 13 13 12 13 13 13 11 9 9 12 12 11 12 11 8 9 10 9 10 10 11 12 12 11 9 10 12 11 9 8
2 1 1 10 16 10 4 3 3 3 4 5 5 3 2 3 4 6 7 5 4 4 5 5 6 5 5 5 5 6 7 5 5 7 7 8 7 8 10 9 8 8 7 4 3 2 4 5 6 7 8 8 8 8 9 10 11 10 12 14 16 18 18 15 13 11 10 15 16 12 11 11 8 10 12 13 14 15 15 14 14 13 12 12 13 11 11 10
2 1 1 5 11 8 3 4 4 3 5 6 5 4 4 2 3 4 7 8 5 5 7 6 8 8 7 7 7 8 9 7 6 7 7 8 8 8 9 8 8 9 9 9 6 3 5 6 5 7 9 8 8 7 4 6 7 7 11 17 19 21 22 16 11 10 12 17 18 14 11 12 12 12 13 13 14 15 16 16 15 14 14 14 12 11 11 9
2 2 2 2 5 5 4 3 4 3 4 6 4 4 6 5 3 2 5 6 4 4 8 8 8 8 6 7 9 8 8 8 8 8 9 10 9 8 8 8 10 10 11 13 8 2 3 6 9 11 11 10 12 10 1 2 6 8 12 17 19 21 23 18 11 12 13 12 13 15 17 17 18 17 15 14 14 14 14 14 14 14 14 13 11 11 11 11
2 2 4 4 2 2 3 4 5 4 3 4 4 4 5 7 7 5 2 3 3 5 8 6 5 7 8 9 9 7 7 8 10 11 11 12 10 10 11 12 13 13 12 11 6 6 3 7 10 14 16 16 16 14 8 5 9 13 14 16 18 19 21 19 17 18 14 9 12 18 20 20 20 18 17 16 15 15 14 13 13 12 11 11 11 12 14 15
3 1 2 2 2 3 4 4 5 5 3 4 4 5 7 8 9 8 4 4 6 6 5 4 5 9 11 8 6 7 8 9 9 8 7 9 9 10 11 12 12 11 9 7 6 6 4 6 7 11 16 18 16 16 18 15 14 16 17 18 19 20 20 21 22 23 17 14 17 17 15 18 19 17 16 16 15 15 14 12 11 11 11 12 14 15 17 18
2 1 2 0 2 3 3 4 6 5 3 3 3 4 8 10 9 8 5 5 7 6 5 7 10 13 13 10 6 7 8 8 8 6 6 9 9 9 10 10 8 4 5 6 6 5 4 5 5 8 11 15 15 16 20 19 17 17 17 18 19 20 22 23 24 25 24 23 24 22 20 21 19 16 16 15 13 13 13 12 12 13 14 15 16 17 18 18
2 2 2 1 2 2 2 3 5 5 2 1 3 4 7 10 10 9 7 6 6 6 6 9 13 16 16 13 10 10 10 11 12 12 11 11 10 8 7 7 5 3 5 6 5 6 6 4 2 3 8 13 12 12 15 14 13 14 12 13 17 18 19 22 22 21 22 23 25 25 23 21 19 18 17 16 14 13 14 15 15 14 15 16 17 18 19 19
3 2 2 3 2 1 3 3 3 4 1 1 3 5 6 8 9 12 10 7 8 8 9 11 14 15 15 14 13 13 14 15 17 17 16 15 13 9 6 7 7 6 5 5 3 5 7 5 3 4 7 10 8 8 10 10 10 11 11 11 14 16 16 17 18 18 19 20 22 21 19 17 17 16 13 12 14 14 15 15 14 14 15 17 19 20 21 21
2 2 2 3 1 0 3 3 2 3 3 3 3 5 6 8 8 10 9 4 6 7 8 10 14 14 13 14 16 17 17 18 19 18 15 14 14 12 10 11 12 10 6 4 2 3 5 4 5 5 7 9 9 8 8 9 9 6 6 7 10 14 15 14 16 18 20 18 15 14 14 14 15 14 12 13 14 14 13 13 13 15 18 19 21 22 22 22
Wind_Direction
354 353 352 351 348 347 346 343 342 341 339 337 336 334 333 331 328 329 328 328 329 326 328 328 329 328 327 328 325 325 331 331 322 309 221 91 81 125 16 4 347 349 352 333 299 254 212 200 196 189 201 205 211 217 195 199 206 204 219 226 229 226 225 222 219 222 221 223 216 196 198 219 220 205 210 223 236 234 207 191 153 121 102 90 104 118 128 139
355 353 351 350 347 346 345 343 342 341 340 338 335 334 333 329 327 327 325 325 326 326 325 324 327 326 326 325 322 327 332 320 295 275 75 84 145 109 355 355 330 350 355 338 337 291 231 207 193 192 201 204 201 204 196 191 201 208 218 226 228 228 228 227 228 224 219 222 212 192 199 224 233 219 205 221 230 224 210 186 144 119 111 115 120 127 137 147
355 353 350 348 345 344 344 344 342 341 340 337 334 332 330 327 326 324 322 323 322 323 322 322 323 323 326 322 322 330 327 306 269 173 91 129 136 20 330 327 328 356 359 348 345 325 289 252 209 211 209 207 200 199 201 190 197 214 220 226 227 229 233 231 230 225 217 216 214 200 195 220 234 233 214 223 231 222 219 205 170 147 135 138 137 139 148 153
355 352 349 347 345 344 344 344 342 340 338 336 334 330 328 327 324 321 320 320 320 319 320 322 320 321 324 319 324 332 315 285 238 117 106 170 134 36 26 14 351 355 338 326 316 313 292 252 223 225 218 212 202 201 210 196 194 213 219 230 230 226 232 232 228 224 216 213 225 219 200 213 225 235 230 224 229 223 222 223 215 187 145 147 151 148 155 159
353 350 347 347 346 345 343 343 341 339 337 334 333 330 328 325 323 322 320 319 319 318 318 319 319 321 320 319 329 326 294 267 115 98 137 182 111 44 53 37 1 359 307 275 277 273 245 225 214 219 222 221 203 199 214 204 203 221 221 231 234 231 234 228 220 222 223 220 229 228 213 213 217 226 230 227 228 226 221 222 228 207 146 148 160 153 159 166
351 349 347 346 345 343 343 342 340 338 335 334 332 329 327 325 323 322 321 319 317 317 318 316 319 321 317 323 329 303 268 271 94 98 143 154 59 42 59 26 3 352 282 262 257 250 241 217 213 213 217 223 210 204 213 204 205 227 223 228 233 240 243 230 217 220 225 224 225 229 223 219 221 218 221 229 232 236 236 232 234 208 141 147 161 158 166 171
350 349 346 344 343 342 341 340 338 336 334 333 331 329 327 325 323 321 320 317 314 315 315 314 318 319 318 326 321 262 248 332 104 108 104 111 29 29 48 10 355 338 305 285 274 250 252 227 223 219 218 221 217 209 205 199 204 229 230 223 227 231 233 232 229 222 220 224 227 230 229 224 225 220 216 225 230 237 244 255 257 206 130 144 158 166 171 172
348 346 345 343 343 342 341 338 335 333 333 333 331 330 326 324 322 318 315 310 307 307 307 312 315 316 320 326 314 243 228 62 93 118 111 101 8 355 283 324 340 342 6 344 330 279 259 241 228 227 226 220 221 209 189 202 209 222 229 221 221 220 220 223 230 224 218 226 232 234 232 228 227 227 228 226 224 229 231 234 243 225 160 160 162 171 170 171
347 346 345 344 343 342 340 336 333 333 334 333 330 328 325 323 320 315 311 305 301 298 297 303 307 313 319 317 294 256 97 45 82 191 16 0 350 342 300 324 337 344 8 358 348 280 254 233 202 272 256 241 214 212 190 220 215 214 223 220 221 215 216 220 216 217 219 224 226 230 231 230 230 234 238 231 225 224 222 226 229 226 213 195 180 170 163 169
346 347 345 344 344 342 339 335 334 334 333 332 328 326 325 323 320 316 311 305 299 291 284 287 298 310 315 310 278 254 64 34 282 297 325 322 327 323 309 3 347 339 350 353 355 310 305 13 70 317 283 277 206 217 205 228 219 196 225 221 225 216 212 224 220 214 215 219 218 224 230 233 232 232 234 228 226 227 226 226 225 225 222 214 203 173 159 169
346 347 345 345 344 340 337 335 336 334 332 331 327 327 326 325 325 325 323 316 305 288 271 267 285 304 309 299 276 317 56 25 333 318 306 302 298 289 293 354 342 331 343 355 39 18 5 24 344 252 250 169 193 205 201 239 351 304 236 226 219 226 229 223 223 217 211 216 215 222 234 237 232 228 229 225 225 228 229 229 225 225 219 213 204 157 149 168
347 347 346 345 342 339 337 335 335 333 331 329 328 328 328 331 336 343 352 345 321 288 248 242 263 295 289 269 268 19 37 0 348 341 318 308 282 272 274 284 304 323 332 337 74 58 353 6 268 253 251 151 201 187 158 212 251 228 238 238 214 214 228 220 218 218 215 216 206 211 232 234 230 227 227 224 227 229 226 228 225 224 221 208 174 135 144 163
347 347 346 344 341 339 337 336 334 332 330 328 328 331 332 336 345 0 11 4 351 331 182 212 233 265 274 269 62 22 11 12 18 13 347 325 280 262 260 252 257 292 311 317 40 57 304 307 260 264 290 255 222 101 130 170 209 220 220 237 219 209 222 213 212 214 214 213 188 196 224 229 227 228 227 221 226 231 225 226 225 221 223 207 166 137 147 158
347 346 344 343 342 340 338 336 334 332 332 332 332 334 336 338 345 0 9 7 5 91 151 171 180 244 265 5 61 46 125 47 20 14 354 344 294 213 208 216 222 233 265 292 14 114 272 259 253 248 227 259 308 112 210 185 193 214 204 219 223 228 221 199 201 207 208 203 186 203 227 230 228 229 226 218 220 228 226 224 224 220 222 212 184 160 154 165
346 344 343 343 342 340 338 336 334 334 337 339 337 336 334 335 338 346 6 8 9 106 124 141 180 257 252 111 81 115 134 23 7 11 2 356 20 116 121 158 177 185 207 222 172 154 218 222 234 225 174 214 245 214 218 203 201 205 200 213 217 228 222 188 192 205 208 200 191 209 231 233 233 232 224 214 216 223 224 224 224 221 221 217 201 181 163 170
345 344 344 343 342 340 338 337 336 340 346 345 339 336 329 329 330 323 355 5 22 99 126 201 194 267 273 85 111 169 100 3 357 1 5 11 23 74 100 139 144 161 179 168 176 169 203 226 234 267 190 192 213 217 218 213 206 203 219 227 213 212 214 187 187 204 211 206 199 211 229 234 235 240 232 220 214 216 221 223 223 222 220 219 211 196 180 172
345 345 344 343 342 341 339 338 339 347 356 350 342 336 323 327 320 300 339 2 41 115 227 271 269 259 272 88 153 178 5 349 348 354 11 37 32 61 100 137 132 157 162 153 181 182 195 218 197 210 219 213 213 215 219 218 212 199 210 230 213 210 219 199 183 195 207 213 211 213 226 237 237 239 236 225 211 211 220 222 222 222 218 218 218 210 204 190
345 345 344 343 343 342 340 339 343 356 360 354 348 339 324 335 327 291 323 343 219 204 218 240 253 236 121 88 309 331 338 329 333 337 0 60 69 53 59 99 118 170 172 163 179 196 203 205 213 216 202 206 211 214 219 225 231 208 196 213 206 207 228 217 189 182 200 212 218 218 222 230 231 213 213 220 214 216 221 221 222 223 219 218 219 218 216 207
345 344 344 344 343 342 341 342 353 4 1 1 357 341 315 327 297 242 280 290 281 227 197 349 318 298 26 9 342 325 309 308 309 290 103 85 153 180 124 189 197 196 201 182 162 193 217 198 212 223 204 201 204 221 240 279 306 243 208 218 217 210 217 218 193 148 197 217 221 225 226 224 224 213 198 200 216 224 226 223 223 223 222 221 220 221 221 217
344 344 343 343 343 342 342 347 2 9 7 6 355 337 311 326 274 174 322 329 23 19 334 345 346 323 332 345 340 327 303 270 265 228 131 118 222 219 193 219 222 207 222 214 127 148 241 230 213 220 208 173 189 251 274 319 298 252 237 230 229 226 214 211 196 134 196 236 226 228 234 228 226 223 217 212 213 219 222 223 225 224 221 221 221 220 220 220
344 343 342 343 342 342 344 353 5 12 15 10 2 13 39 8 5 15 342 336 62 4 314 343 331 313 342 334 334 335 304 214 196 205 182 187 247 237 177 238 237 199 131 61 136 145 230 244 208 102 40 55 81 237 245 247 229 228 232 228 224 227 221 210 201 158 176 241 235 228 233 234 232 229 228 227 226 223 217 217 223 226 223 221 221 220 219 219
343 341 342 340 340 344 347 357 6 13 14 13 21 41 45 20 3 349 326 304 39 353 302 313 287 317 31 312 332 308 287 278 129 134 151 220 248 257 46 272 256 210 122 212 228 195 218 232 101 95 84 101 155 186 205 218 222 224 229 229 223 220 217 208 210 205 194 231 237 225 228 240 236 232 233 233 234 233 227 223 224 227 226 223 220 220 221 219
341 341 340 339 342 347 346 359 13 19 22 21 31 38 31 14 351 317 290 286 334 52 321 355 358 39 67 95 47 275 299 359 25 116 116 235 239 329 312 254 252 278 214 224 238 243 237 124 96 106 139 170 183 188 211 216 218 228 227 228 227 214 214 218 208 205 208 230 246 244 246 246 235 232 236 236 237 238 235 232 231 233 232 229 227 224 221 220
340 340 339 340 345 350 345 5 16 18 29 21 31 35 12 356 348 331 298 274 274 108 64 39 2 18 36 46 6 277 320 345 279 110 111 243 255 50 275 266 263 253 221 215 246 265 279 100 108 150 174 196 200 187 211 226 220 221 224 235 240 219 221 242 231 196 221 232 240 253 259 249 235 233 235 232 232 234 233 230 229 233 235 236 240 238 231 227
340 339 340 341 348 357 341 282 17 2 324 3 22 18 354 351 339 326 303 255 160 109 148 160 209 43 43 288 239 292 316 305 228 96 146 258 279 262 267 264 256 253 184 172 225 255 253 133 151 198 193 208 219 200 211 229 235 222 217 229 247 249 233 248 263 245 243 232 217 221 241 245 230 231 234 230 227 226 226 226 225 229 232 233 237 239 238 236
340 340 341 341 349 359 331 251 12 332 292 14 19 350 341 338 312 307 286 242 121 61 97 171 189 42 28 303 309 300 296 203 157 330 280 254 266 267 274 219 223 267 151 181 243 261 198 146 182 213 201 203 221 224 204 214 250 241 187 207 234 246 240 242 243 230 239 243 199 199 233 251 231 227 228 226 228 225 222 223 223 225 228 229 230 231 232 232
341 340 340 341 351 358 349 344 343 320 319 15 355 328 331 324 300 274 264 241 92 12 324 357 4 4 351 328 324 301 298 355 299 204 114 218 227 225 252 235 217 228 175 213 261 222 161 168 191 207 211 210 220 227 186 195 244 254 97 166 228 234 235 234 235 231 238 246 191 192 233 256 247 231 220 218 226 228 224 223 221 221 223 225 227 228 228 230
341 341 340 341 349 353 350 319 319 337 2 343 317 320 325 313 277 241 260 257 49 343 317 5 352 308 303 310 312 298 318 329 292 125 109 240 248 225 245 254 262 252 196 228 258 152 152 186 192 191 210 216 215 225 167 194 235 265 93 219 236 231 234 231 232 235 237 243 232 213 222 243 248 235 219 218 225 228 226 225 223 221 221 222 225 227 227 228
343 342 340 343 346 341 336 301 298 335 345 315 310 318 315 296 238 234 258 282 23 340 346 347 312 288 308 316 323 313 318 303 288 74 137 238 246 248 263 278 276 268 232 235 251 222 175 197 214 214 221 227 218 212 180 200 228 191 147 223 233 226 232 227 232 237 229 235 240 225 216 229 246 233 221 219 224 228 227 226 227 225 223 222 223 225 227 227
346 344 343 353 359 326 309 284 266 307 317 311 312 311 296 256 229 253 287 9 352 347 337 316 320 320 321 329 346 342 335 311 306 310 258 233 199 224 263 290 263 260 246 235 243 253 239 169 231 242 236 247 243 227 206 206 223 185 174 210 213 210 219 220 231 240 235 233 236 232 225 231 244 235 222 218 221 229 230 229 228 226 226 225 223 224 226 227
348 348 4 12 4 316 298 305 325 314 314 315 312 302 260 225 254 308 29 35 300 331 344 327 332 330 327 331 329 329 333 329 322 304 284 273 216 212 227 232 230 244 245 235 233 239 228 203 216 230 228 236 240 227 210 205 214 206 200 212 205 199 206 216 219 221 236 239 233 230 228 232 239 236 232 229 224 229 235 232 226 221 220 220 222 225 226 227
352 7 42 25 7 345 315 324 327 316 314 316 310 285 239 248 357 13 12 327 265 347 354 335 332 330 325 322 319 333 333 334 348 325 314 314 290 268 258 245 246 251 242 236 230 224 224 224 224 219 212 216 226 223 204 201 209 211 212 214 210 208 208 217 219 212 227 240 238 229 225 230 239 240 241 243 238 234 233 229 226 224 221 221 225 224 224 227
9 50 58 32 17 359 322 321 327 326 322 313 294 252 258 326 25 16 342 337 330 342 331 321 323 320 313 310 331 353 336 327 348 336 327 318 303 294 280 267 263 265 264 279 291 260 241 244 237 230 212 205 221 226 206 198 203 209 211 209 210 216 219 223 224 220 230 235 224 216 225 236 245 244 241 244 245 241 235 232 240 245 241 239 237 232 228 227
58 70 67 42 24 7 341 335 339 335 319 300 271 255 306 3 24 348 333 343 333 321 318 320 319 312 304 306 341 357 347 349 346 329 322 309 293 299 296 278 256 257 266 271 278 266 253 257 232 229 215 195 212 227 231 220 209 213 218 224 229 233 236 237 234 230 243 243 217 203 220 237 239 237 229 237 240 237 240 243 245 246 242 241 241 240 239 231
80 63 62 43 24 6 348 338 338 334 318 291 272 309 6 26 16 340 338 334 327 326 322 317 309 307 318 325 350 16 21 347 342 328 320 313 304 308 305 302 262 241 245 246 238 221 245 261 239 222 218 191 206 219 231 236 227 214 216 226 232 238 246 255 259 261 285 281 235 210 222 239 246 256 224 219 226 223 231 238 238 239 235 235 238 236 239 236
92 53 57 34 12 355 342 334 333 329 307 280 295 9 26 16 348 344 339 326 323 328 325 322 317 323 337 344 349 27 69 310 332 337 324 313 310 310 308 323 304 239 238 236 237 229 243 264 238 212 207 207 217 217 216 228 236 211 211 224 232 243 256 261 259 259 268 269 249 229 240 243 251 258 240 230 230 223 224 225 225 231 230 230 234 233 234 235
47 23 55 23 2 345 335 328 325 315 285 280 328 31 24 345 350 342 330 324 319 320 319 324 350 344 338 333 333 357 3 319 332 339 320 318 320 330 310 312 297 266 262 248 256 266 261 277 235 206 209 205 217 230 220 224 237 233 219 226 232 243 252 253 253 252 244 248 247 239 245 246 246 252 235 227 230 229 230 231 226 223 221 222 224 226 229 231
325 271 77 23 357 339 327 321 318 301 274 288 39 84 352 336 358 335 328 325 313 309 302 298 335 349 328 325 327 339 339 329 336 329 310 309 313 72 312 304 179 281 279 253 245 214 244 275 236 206 221 202 190 226 235 224 229 240 249 244 235 238 237 229 231 238 236 240 243 238 241 244 242 243 234 225 227 225 226 230 231 228 223 224 225 225 229 229
289 249 144 14 348 336 329 318 307 282 265 311 44 85 350 322 336 331 326 322 306 303 302 295 303 305 309 314 314 325 331 322 324 326 313 300 314 308 305 312 114 115 276 235 226 198 213 265 247 172 203 205 192 218 234 221 217 231 247 246 239 247 247 237 231 231 234 238 244 243 242 240 238 239 241 243 242 235 226 224 229 233 233 236 236 235 236 235
296 254 107 5 344 337 329 307 291 287 313 9 16 10 351 313 314 321 322 320 309 289 296 312 316 295 300 307 310 323 333 308 312 315 289 284 303 293 244 333 304 154 191 220 224 222 222 245 257 167 159 196 217 215 227 233 218 218 231 232 230 234 241 248 244 234 237 244 245 246 247 245 239 235 239 242 241 240 242 241 240 240 240 237 235 235 237 238
290 267 55 357 344 339 320 292 317 10 356 70 21 338 349 328 306 314 322 307 287 265 280 303 300 285 290 300 312 326 322 301 304 298 278 270 284 286 125 141 288 279 211 222 223 221 224 236 252 246 213 222 236 229 233 245 242 228 228 230 231 229 229 241 242 230 231 242 245 248 253 250 242 235 235 239 240 236 236 242 245 244 243 241 235 236 240 242
296 348 15 350 345 336 311 277 71 11 338 15 350 303 317 322 298 312 332 316 286 284 274 288 294 295 295 295 310 319 312 299 295 287 289 293 283 281 269 253 277 273 251 251 243 225 229 249 252 256 257 257 268 268 249 250 254 249 241 236 236 235 232 237 243 238 235 239 244 252 257 256 250 248 245 237 235 235 232 233 236 237 240 247 250 245 242 248
342 9 11 352 346 326 302 11 62 359 21 0 331 287 275 296 291 307 324 319 309 312 298 299 312 312 300 295 297 301 306 296 278 270 287 299 289 282 290 290 274 264 258 264 255 218 208 240 250 258 267 265 269 266 250 247 252 251 244 238 235 235 235 237 246 255 254 245 241 246 252 254 247 243 246 244 240 244 246 242 241 244 249 257 259 253 247 258
346 313 349 360 354 334 310 22 354 339 8 341 320 313 271 260 281 307 317 319 320 319 312 311 317 312 300 303 298 293 305 299 267 271 284 291 290 284 290 294 276 259 252 266 282 213 207 232 241 260 275 270 257 244 238 236 236 241 243 239 236 236 235 239 244 249 255 248 242 242 249 251 243 230 232 238 243 247 250 252 254 257 259 259 259 252 249 265
307 266 211 14 17 19 53 35 346 328 351 338 320 328 328 280 253 289 303 301 291 300 311 310 308 303 292 296 301 295 295 281 260 277 284 280 288 287 284 285 272 256 249 262 280 263 245 246 231 250 267 270 265 256 238 223 219 227 237 237 239 238 233 234 237 239 244 245 242 242 247 253 250 241 234 234 238 245 249 251 253 255 255 254 253 250 253 269
336 13 342 355 41 50 79 60 1 346 354 341 328 339 342 332 322 300 286 287 280 296 305 301 301 305 302 309 313 300 283 263 256 272 280 280 288 289 286 286 279 268 260 260 254 189 245 244 227 237 246 251 260 263 246 151 205 221 224 224 230 236 235 233 231 233 239 247 250 243 242 249 249 245 243 242 244 250 253 252 252 250 249 250 251 255 264 276
349 23 2 344 351 29 58 61 21 4 350 329 331 344 333 327 341 352 290 279 318 313 300 286 288 313 327 329 319 299 282 275 270 271 274 277 285 288 287 287 281 274 267 257 213 150 223 245 224 231 240 244 255 263 266 248 233 236 236 226 220 225 233 233 231 235 240 253 254 243 238 246 251 249 250 253 255 256 255 254 256 255 257 263 267 269 274 278
14 79 44 337 314 353 7 7 355 343 323 310 314 318 318 327 349 355 330 301 312 314 312 304 304 318 325 328 312 291 293 292 277 263 265 279 293 300 296 288 281 270 257 241 184 158 236 256 223 225 241 248 253 263 267 263 249 246 247 240 227 219 220 226 232 236 236 238 247 252 253 254 256 257 255 254 255 257 259 262 267 271 273 275 277 276 277 278
37 76 99 274 298 342 339 322 316 305 300 307 300 315 322 325 341 354 340 314 309 314 321 313 317 326 326 320 299 278 285 297 287 272 280 290 294 299 298 289 280 254 229 225 192 175 232 261 221 215 248 260 257 260 264 263 258 256 250 241 234 225 219 221 229 234 235 239 250 261 267 265 262 262 259 259 261 263 267 270 271 272 275 278 279 278 279 279
29 9 17 274 278 313 294 293 302 292 257 257 300 336 326 315 330 344 328 295 287 306 326 318 319 323 319 312 300 276 274 290 293 288 289 291 288 285 281 276 274 256 238 230 198 189 214 250 232 212 267 276 267 262 265 264 266 273 266 239 228 227 224 224 229 235 236 241 249 255 261 266 265 262 259 262 267 268 268 269 271 273 277 280 280 280 281 280
48 37 3 305 295 337 299 296 298 293 311 10 324 338 328 315 333 338 319 269 246 273 312 321 321 320 312 308 310 308 307 308 300 290 285 283 281 276 262 259 276 286 264 247 225 199 211 250 284 266 279 287 287 283 282 281 277 271 266 247 226 219 221 223 225 228 230 234 242 248 252 257 261 263 263 259 261 263 264 269 275 279 279 279 279 282 283 279
41 87 56 312 284 82 323 315 294 301 350 11 320 311 307 306 326 333 323 279 240 269 303 317 319 320 312 309 320 326 323 314 299 288 283 276 271 267 260 257 262 267 265 265 264 219 219 252 280 280 287 293 301 306 295 289 289 270 259 265 243 222 219 222 222 223 225 228 233 238 240 247 259 271 274 268 267 270 274 279 284 282 281 281 281 282 281 278
Height
839 838 836 834 833 831 829 828 826 825 823 822 820 819 817 816 814 813 812 810 809 807 806 804 803 801 799 798 795 793 790 788 787 785 783 783 784 784 784 784 783 782 781 780 779 778 776 776 776 776 776 775 774 770 769 769 768 772 778 780 775 770 766 760 761 760 760 761 756 757 760 764 764 760 756 757 762 761 759 759 760 763 764 765 769 771 775 780
838 837 835 834 832 830 829 827 826 824 822 821 819 818 816 815 814 812 811 809 808 807 805 803 802 800 798 796 794 792 790 789 787 784 784 784 784 784 784 783 783 782 781 780 779 777 775 773 773 774 773 772 770 768 768 767 767 771 773 775 771 763 758 752 753 753 755 758 756 758 762 763 763 759 756 763 767 761 762 764 765 770 770 769 770 773 777 779
838 837 835 833 831 829 828 826 825 823 822 820 818 817 815 814 813 811 810 808 807 806 804 802 801 799 797 795 793 791 790 788 784 782 783 784 784 784 784 783 782 782 781 780 779 778 776 774 774 773 771 769 767 767 768 766 765 766 767 770 764 757 754 749 749 750 751 753 755 759 762 765 762 756 757 764 766 762 762 762 766 775 775 773 771 773 776 779
838 836 834 832 831 829 827 825 824 822 821 819 817 816 814 813 811 810 808 807 806 804 803 801 800 798 796 794 792 791 791 786 779 780 783 783 783 783 783 783 782 782 781 781 779 778 777 776 775 772 770 768 765 765 767 763 763 763 762 763 756 753 756 750 747 749 749 751 755 756 761 766 761 757 759 764 768 765 761 757 758 766 770 772 771 771 774 777
837 835 834 832 830 828 826 825 823 821 820 818 816 815 813 812 810 809 807 806 805 803 802 800 799 797 795 793 790 790 790 782 776 780 783 783 783 783 783 783 782 781 781 780 779 778 777 774 773 772 770 768 764 766 765 759 760 761 756 756 752 752 754 748 747 751 750 751 755 756 760 762 759 760 761 763 768 764 756 752 749 753 761 767 768 769 771 775
837 835 833 831 829 828 826 824 822 820 819 817 815 813 812 810 809 808 806 805 803 802 801 799 798 796 794 791 789 790 787 778 778 782 782 783 783 783 783 782 782 781 780 779 777 776 774 773 772 771 769 766 763 764 762 756 759 762 757 755 752 752 753 748 748 752 751 753 757 756 755 757 759 762 761 761 763 756 746 745 744 745 752 760 764 766 769 773
836 835 833 831 829 827 825 823 821 819 818 816 814 812 811 809 808 806 805 804 802 801 800 799 797 796 793 790 789 788 783 777 780 783 782 783 783 783 783 782 782 781 780 778 776 775 773 772 770 768 768 765 763 761 760 758 762 765 760 755 754 756 756 752 751 751 751 754 755 753 753 756 760 760 759 759 758 751 745 744 745 745 748 755 762 764 767 771
836 834 832 830 828 826 824 822 821 818 816 814 813 811 809 808 806 805 803 802 801 800 799 798 796 795 793 791 788 782 778 779 782 783 783 783 783 783 783 782 782 781 779 778 776 775 773 772 770 770 768 765 764 762 762 765 765 765 761 757 760 762 757 755 756 754 754 755 752 753 755 755 755 756 757 757 754 749 747 747 747 748 749 754 760 763 767 770
836 834 831 829 828 825 824 822 819 817 815 813 812 810 808 807 805 803 801 799 799 798 797 797 796 795 793 792 789 780 777 781 783 783 783 783 783 783 783 782 782 780 779 779 777 776 773 772 771 771 769 766 767 765 766 769 765 761 761 762 765 763 758 757 759 758 757 756 754 758 759 756 753 755 757 752 749 747 747 749 749 750 752 753 756 760 765 768
835 833 831 829 827 825 823 820 818 816 814 812 811 809 807 805 803 800 798 797 796 796 796 796 795 794 793 792 787 778 779 783 783 783 783 783 783 783 783 782 782 780 779 778 777 776 773 773 773 772 771 768 769 768 768 769 765 763 764 766 766 763 761 761 760 758 758 757 757 761 762 757 752 756 759 751 746 746 747 749 749 750 753 752 752 755 761 766
835 832 830 828 826 824 822 819 817 815 813 811 809 807 805 803 801 798 796 795 794 794 794 794 795 794 794 793 784 777 781 784 783 784 783 783 783 783 783 783 782 781 779 778 778 777 776 776 774 773 772 769 769 770 770 768 768 768 768 768 766 765 764 763 762 759 759 759 756 760 761 757 753 754 756 750 744 745 748 750 749 750 751 751 752 754 760 764
834 832 830 828 825 823 821 818 816 814 812 810 808 806 804 801 799 797 796 794 792 792 793 793 794 794 794 791 783 779 783 784 783 783 783 782 783 782 782 783 783 782 780 778 778 779 778 777 776 774 771 769 769 770 771 769 770 770 770 771 767 767 767 763 762 760 760 759 754 759 766 761 754 750 748 746 744 743 746 749 748 749 748 749 752 755 760 764
834 831 829 827 824 822 819 817 815 812 810 808 807 805 802 800 799 797 796 794 792 792 792 793 793 794 793 786 781 783 784 784 783 783 783 782 781 781 782 782 782 782 781 779 779 780 779 778 777 773 771 770 768 770 771 769 771 771 770 770 767 769 768 760 760 760 760 759 753 762 773 763 750 746 743 744 745 744 747 749 748 748 747 747 752 756 760 763
833 831 828 826 823 821 818 816 814 811 809 807 805 803 801 800 798 797 796 794 793 792 792 793 793 794 791 783 782 784 784 783 783 782 782 781 780 780 781 781 782 782 782 781 780 780 779 779 777 774 773 771 769 770 771 769 770 768 769 770 768 770 764 753 756 760 761 759 753 763 771 757 743 739 739 741 744 745 748 749 747 747 746 746 750 756 759 762
832 830 827 825 823 820 817 815 812 810 808 806 804 802 801 799 798 797 796 794 793 792 793 793 794 793 787 781 783 784 783 783 782 782 782 781 780 779 779 781 781 781 782 781 780 780 780 778 776 773 772 772 772 773 771 768 767 765 771 772 767 767 759 750 754 757 759 757 754 763 765 752 740 735 734 737 741 744 747 748 746 746 746 745 748 753 757 760
831 829 827 824 822 819 817 814 811 809 807 805 803 801 800 799 798 797 795 795 794 793 794 793 793 793 785 780 783 784 783 783 782 783 782 781 780 779 780 780 780 781 781 781 780 780 779 777 775 773 772 773 772 771 769 769 768 765 769 767 760 762 759 755 756 753 754 755 754 759 758 749 741 735 732 731 735 740 744 745 745 745 745 745 746 750 754 757
831 828 826 823 821 818 816 813 811 808 806 805 802 800 799 798 797 796 795 795 794 794 795 792 793 792 784 780 783 782 782 783 783 783 782 782 781 780 780 779 779 780 779 780 780 778 777 776 775 773 771 770 766 766 771 773 769 764 766 763 758 761 759 757 758 752 751 753 753 753 753 748 742 738 734 729 731 738 742 742 742 742 743 745 746 747 751 754
830 827 825 822 820 817 815 813 810 808 807 804 801 800 798 797 796 796 795 795 794 793 793 791 791 788 783 782 783 783 783 784 783 783 782 782 782 781 780 778 778 778 777 778 777 777 776 774 773 771 770 769 767 767 771 769 761 760 764 764 763 765 762 757 756 753 751 753 753 752 753 751 744 741 738 735 735 739 739 739 740 740 741 744 745 747 748 750
829 827 824 822 819 817 814 812 810 808 807 804 801 799 797 796 796 795 795 793 791 789 788 789 788 785 784 784 784 783 783 783 783 782 782 781 782 781 779 778 777 776 775 774 775 776 774 773 773 771 768 767 766 764 763 762 760 760 761 761 761 763 762 756 753 753 753 755 754 751 751 751 747 744 742 742 741 741 740 738 739 740 740 742 745 746 747 748
829 826 824 821 819 816 814 812 810 809 807 804 801 798 797 796 791 791 793 791 790 791 789 789 789 787 786 784 784 783 782 782 781 780 781 781 780 779 777 777 775 773 773 772 774 775 773 774 771 767 765 765 767 767 765 766 767 765 765 764 761 761 759 754 753 756 757 760 756 751 751 749 745 742 739 740 741 743 743 742 740 739 740 742 743 745 746 747
828 825 823 820 818 816 814 812 810 809 808 805 803 800 801 802 797 797 797 791 790 792 791 790 790 788 787 786 785 784 782 780 779 779 780 780 779 777 775 775 774 772 773 775 775 775 775 773 767 766 769 771 773 773 772 773 771 769 768 766 764 763 759 753 754 758 759 764 759 751 753 751 745 742 739 740 743 744 743 743 743 740 740 741 741 743 743 744
827 824 822 819 817 815 814 812 811 810 808 807 805 803 805 808 807 807 805 796 790 791 790 789 789 787 787 787 786 786 783 778 777 778 779 780 778 776 774 775 774 771 774 777 774 774 773 769 768 772 774 775 776 775 776 776 774 772 768 766 765 761 759 758 758 758 760 766 761 753 758 757 749 745 743 744 745 743 740 741 742 741 741 740 740 741 741 742
826 823 821 818 816 815 813 812 811 810 809 808 807 807 808 810 809 810 807 798 791 789 788 787 787 785 785 786 786 785 782 779 778 777 779 779 776 776 776 774 774 773 774 774 772 771 768 766 771 775 776 777 778 778 778 776 775 773 768 767 765 758 761 763 759 759 761 764 762 758 763 760 750 746 744 744 743 741 740 739 740 741 741 740 739 740 740 741
825 822 820 817 815 814 813 812 812 810 810 810 808 809 810 810 809 809 805 796 791 788 786 788 786 785 785 785 786 784 780 780 779 776 779 779 776 778 777 774 776 775 772 772 774 773 768 768 774 777 777 777 778 778 778 776 773 770 768 768 763 759 764 763 758 762 764 763 763 765 770 761 749 749 745 741 740 740 740 740 741 742 741 741 740 740 740 740
824 821 819 816 815 814 812 812 811 811 811 809 809 810 810 810 808 809 805 794 788 785 784 787 786 785 785 785 785 782 779 779 777 776 778 778 777 777 775 775 776 772 770 774 777 773 768 769 774 777 778 777 777 777 776 775 770 768 768 767 766 765 767 767 765 769 772 768 760 764 775 762 744 745 743 737 737 738 738 739 740 740 739 740 741 740 740 740
823 820 818 816 814 813 812 811 811 811 809 807 810 810 809 810 807 809 805 788 780 784 784 784 785 785 784 783 781 779 779 778 775 775 777 777 776 777 776 773 773 771 772 775 775 770 767 770 774 776 776 777 778 776 774 775 773 767 765 766 769 770 771 771 770 772 774 766 753 757 770 761 743 738 736 734 735 733 734 735 736 737 736 736 737 737 737 738
822 819 817 815 814 813 812 811 811 810 807 808 810 809 809 809 806 809 801 782 780 788 786 781 783 785 783 781 779 777 779 777 773 774 776 777 776 776 776 771 770 772 773 777 775 769 768 773 775 775 775 776 776 773 771 775 774 768 766 769 771 771 772 771 770 771 767 759 756 760 765 764 751 736 728 731 734 732 731 731 731 733 733 733 732 732 733 734
821 818 816 815 814 814 813 813 812 809 809 810 809 808 809 806 806 807 796 788 790 789 787 784 783 784 782 778 777 777 778 776 775 776 776 777 776 775 775 770 769 769 769 776 775 766 768 773 774 774 776 774 771 769 770 774 774 768 769 772 770 770 770 768 768 768 763 762 766 762 760 767 758 738 729 732 734 734 730 728 728 729 729 730 730 730 730 731
819 817 815 814 814 813 813 813 812 810 810 809 808 808 807 805 807 800 788 791 795 788 788 787 782 782 780 776 776 776 775 776 776 775 774 776 775 774 773 770 769 770 768 772 772 766 766 769 770 771 773 769 766 767 770 775 772 767 771 773 770 770 769 768 769 765 764 771 770 757 754 762 755 738 733 735 736 735 729 724 724 725 726 727 728 728 728 729
818 816 814 814 814 813 813 812 811 811 809 808 808 806 805 806 801 791 788 794 795 787 786 786 782 782 780 777 777 776 775 775 774 773 772 773 774 774 773 772 773 772 768 768 769 766 764 768 771 771 770 766 763 765 768 772 770 768 773 773 772 772 769 769 768 764 769 774 767 754 747 752 753 739 728 728 730 728 724 722 722 722 723 724 725 726 727 727
816 814 814 813 813 814 812 810 810 810 808 807 806 804 805 801 787 786 794 795 793 790 785 786 785 781 780 782 780 776 775 775 774 775 773 771 773 774 774 774 774 772 769 767 765 763 764 770 771 769 768 766 766 767 767 770 770 770 772 770 771 772 770 773 771 771 779 772 756 747 742 747 751 740 724 718 718 719 719 720 720 721 721 722 723 724 724 725
815 814 814 813 813 813 812 811 810 809 807 806 805 803 800 790 784 793 796 792 796 797 790 790 788 782 782 783 779 777 777 777 775 775 775 772 772 772 771 771 770 772 771 765 763 762 761 763 764 764 765 767 770 769 767 769 770 771 770 769 773 772 774 779 774 770 774 761 743 739 741 743 741 731 723 717 714 715 716 717 718 720 721 722 723 722 722 723
814 813 813 813 813 813 812 811 809 808 807 805 804 800 792 787 792 799 796 795 801 799 792 791 788 784 783 780 777 777 779 780 777 776 776 774 773 771 768 765 765 770 770 766 768 769 765 760 759 761 762 764 767 766 765 767 769 770 767 767 769 767 772 780 772 763 760 749 739 739 742 744 738 726 721 718 716 715 716 718 720 720 721 723 722 721 721 722
815 814 814 813 813 813 812 810 809 807 806 804 801 794 791 794 798 798 797 798 798 794 792 790 787 785 781 779 779 778 780 780 777 778 778 775 775 772 768 765 765 768 771 772 773 774 775 770 761 760 760 760 764 762 758 758 762 765 760 759 762 758 759 763 759 755 751 740 734 741 748 749 740 726 717 715 715 715 717 718 719 719 720 722 721 721 721 720
815 814 814 813 813 813 811 810 809 807 805 803 795 787 791 800 800 799 801 799 795 795 794 789 786 784 778 776 779 781 785 783 775 777 778 775 774 770 766 765 766 768 773 777 776 774 779 772 759 757 758 758 762 760 755 756 759 758 755 758 759 750 748 750 748 749 756 751 739 741 748 740 728 718 713 716 716 714 716 716 716 718 717 719 720 721 721 720
816 815 814 814 814 813 811 809 808 806 805 800 791 787 795 801 799 799 801 800 798 799 799 791 783 782 779 777 777 780 788 786 779 779 778 774 771 766 764 764 764 768 771 775 776 774 776 770 757 757 759 758 759 756 754 758 758 754 755 757 750 743 747 756 755 752 763 769 751 741 743 733 725 720 712 714 717 714 715 714 715 716 715 717 719 719 720 720
816 815 814 814 814 812 811 809 807 806 803 796 792 796 800 799 797 798 799 799 799 800 806 801 789 786 787 782 778 779 786 786 784 785 781 774 768 764 764 764 764 766 765 769 774 773 775 771 759 757 760 757 755 755 754 754 754 755 755 750 745 748 752 757 764 765 769 771 755 743 742 736 733 725 710 709 715 715 713 712 711 712 713 714 715 716 717 717
816 815 814 814 814 812 810 808 806 805 799 794 797 803 803 799 797 799 799 800 800 800 806 806 798 795 793 788 783 782 786 786 783 785 783 773 767 764 764 763 764 766 764 765 772 775 778 772 758 753 755 753 755 760 759 754 752 753 750 745 749 759 758 756 765 772 772 770 757 745 740 732 728 721 711 709 711 709 709 708 708 709 709 710 710 711 712 712
816 813 812 814 814 811 809 808 805 802 796 794 798 802 803 802 799 799 800 800 800 800 802 801 801 801 796 792 789 785 788 788 783 785 783 773 767 765 763 763 764 766 765 765 769 772 774 771 759 752 754 755 757 761 759 753 752 753 751 748 750 754 753 752 755 758 758 757 752 745 736 725 717 712 710 709 707 706 706 705 705 705 705 705 706 707 708 708
816 811 811 814 814 810 809 807 802 799 797 798 801 802 805 806 802 799 800 800 799 800 799 797 801 805 800 794 792 791 794 792 785 786 784 775 770 765 762 763 763 764 764 764 766 767 768 770 764 755 757 761 758 755 751 747 749 754 755 752 750 749 748 751 750 747 747 747 745 743 735 720 707 702 703 704 704 705 706 705 705 704 702 702 701 702 703 704
815 809 811 815 813 810 808 804 802 802 800 801 805 806 808 809 805 801 799 800 799 797 796 797 800 804 801 798 796 795 798 794 785 782 779 773 772 766 762 763 763 763 764 764 765 766 766 769 767 759 757 757 751 744 743 742 741 746 750 749 747 746 748 755 752 741 739 741 738 736 732 717 701 696 698 700 701 701 702 704 704 702 700 698 698 699 700 701
813 810 813 815 813 811 807 803 805 807 803 803 807 810 811 811 808 802 798 799 798 795 795 798 799 799 799 800 800 798 799 796 786 779 774 770 771 768 763 763 762 761 763 762 760 760 762 766 767 761 753 748 744 740 742 742 739 739 741 741 742 742 745 751 749 738 736 737 733 731 729 716 700 695 697 699 699 698 698 699 698 697 697 697 697 697 698 699
814 814 816 816 814 811 806 802 804 806 805 808 810 810 811 812 808 803 800 799 797 795 795 795 795 797 797 799 803 802 801 797 786 776 772 770 768 764 760 760 762 761 762 760 756 757 763 767 766 761 751 744 743 742 742 743 744 743 739 736 737 738 737 739 738 735 736 735 732 734 732 717 702 699 700 699 698 698 696 695 695 695 696 697 697 696 696 696
820 818 818 817 814 810 808 809 810 809 809 811 811 808 808 810 808 805 802 800 798 797 796 795 793 794 795 797 801 801 799 797 786 772 769 769 765 760 758 759 761 762 761 760 758 760 764 765 765 765 759 751 750 752 753 753 754 750 741 735 733 731 732 734 733 735 738 732 728 732 730 714 700 697 699 699 699 699 697 695 695 696 696 695 694 693 693 693
820 818 817 818 816 813 815 819 820 816 815 815 813 809 808 807 806 807 805 802 800 798 796 795 792 792 795 797 798 798 796 797 790 776 769 767 761 756 756 758 759 760 760 759 760 764 764 763 764 767 765 758 752 751 752 755 757 755 747 739 734 730 731 733 735 739 737 725 721 725 722 709 697 694 696 698 699 698 697 695 693 693 693 691 691 690 690 690
818 817 817 816 816 817 820 825 825 820 820 821 815 809 810 808 803 805 807 802 799 798 797 795 792 792 794 797 801 801 796 792 789 781 773 769 763 756 754 755 756 756 758 758 761 769 771 767 764 764 761 754 744 739 744 751 756 756 750 744 740 734 730 731 736 734 725 721 720 716 712 708 700 697 696 695 696 696 694 692 691 690 689 687 687 687 687 688
819 823 826 825 819 816 818 823 825 824 824 824 818 813 814 809 801 802 805 802 799 800 798 794 793 794 794 799 806 802 794 789 786 782 778 771 764 758 754 755 755 753 754 756 760 770 774 768 762 762 759 750 742 740 745 752 754 751 747 745 744 741 738 736 733 724 721 727 719 703 702 707 701 697 697 694 694 693 690 689 688 686 686 686 686 686 685 685
823 827 834 835 828 821 822 825 828 828 826 823 819 816 814 808 803 805 806 803 801 799 796 793 792 791 791 799 807 803 794 789 783 779 776 772 767 763 759 756 751 748 750 754 757 765 770 763 758 758 755 749 747 746 744 747 749 746 744 744 743 742 743 742 733 723 723 725 710 696 702 707 699 695 695 692 691 690 687 686 686 685 686 686 684 684 683 681
828 829 832 835 832 828 830 831 831 828 825 824 819 815 815 810 806 808 808 808 806 798 795 796 792 787 787 793 802 802 795 789 783 777 775 774 773 772 767 758 748 743 746 752 757 764 765 757 752 756 754 746 745 743 737 737 738 733 731 734 736 736 737 737 732 723 719 715 705 701 706 702 693 693 692 688 686 686 684 684 684 685 684 683 682 681 680 677
833 833 833 834 830 829 831 830 829 824 820 822 819 814 816 814 809 811 811 813 813 801 793 795 793 788 787 786 790 793 788 784 783 778 775 776 775 772 769 760 749 745 746 751 758 763 761 750 747 756 754 739 732 732 727 723 722 717 714 717 723 728 728 729 727 722 720 716 709 707 708 699 687 685 688 686 685 685 685 683 683 681 680 680 680 678 676 674
839 838 838 835 828 827 827 825 825 821 814 817 818 816 818 815 812 816 813 808 809 804 796 797 796 790 784 779 778 778 775 775 778 774 771 774 771 768 766 760 754 753 752 754 759 762 760 751 746 753 751 730 721 724 718 712 712 711 710 709 710 716 719 718 717 716 716 715 712 711 709 697 682 678 683 684 683 684 683 681 680 679 678 679 677 674 672 669
841 839 840 838 829 825 825 821 820 818 813 818 822 821 821 818 815 819 816 805 801 801 798 798 798 791 783 777 773 772 772 772 771 766 764 764 761 759 760 759 758 761 760 761 762 760 758 754 748 750 745 725 714 716 715 711 710 709 707 704 700 702 706 706 705 705 705 706 708 706 697 685 679 678 681 681 680 680 679 679 679 678 677 676 674 672 669 665